Location: Unspecified
(0.0000°N, 0.0000°E)
Time: 14:18:22
(UTC+00:00)

Vanguard 1 Rocket - Pass Details

Date: 28 March 2018
Orbit: 654 x 4223 km, 34.3° (Epoch: 21 April)

Event Time Altitude Azimuth Distance (km) Brightness Sun altitude
Rises 07:30:37 0° 223° (SW) 7,549 11.7 21.3°
Reaches altitude 10° 07:37:39 10° 213° (SSW) 5,911 11.3 23.1°
Maximum altitude 07:50:34 28° 161° (SSE) 3,217 10.6 26.3°
Drops below altitude 10° 07:58:15 10° 104° (ESE) 3,468 11.8 28.2°
Sets 08:01:04 0° 91° (E) 4,079 12.0 28.9°
